GFSFLT2_850_temp_108.txt.gz
Temp
9 9 9 9 9 9 9 9 9 10 10 10 10 11 10 10 10 10 10 9 10 9 9 8 8 9 8
7 8 8 8 9 9 9 9 9 9 9 9 10 9 9 10 10 9 10 10 9 9 8 8 8 8 7
5 6 6 7 7 7 8 8 8 8 8 9 9 9 9 9 9 9 9 9 9 9 8 8 8 8 7
4 4 5 6 6 6 7 7 7 7 8 8 8 9 9 9 9 9 9 8 8 8 7 8 7 7 7
3 3 3 3 4 5 5 6 6 7 8 8 8 8 8 8 8 9 8 8 8 7 7 7 7 6 6
0 -0 0 1 2 3 3 4 4 6 7 7 7 7 7 7 8 8 7 7 7 7 7 7 7 7 7
-2 -2 -1 -1 -0 1 1 2 3 4 4 4 5 5 6 7 7 7 7 6 7 7 6 6 6 6 6
-3 -3 -3 -2 -2 -1 -0 0 1 2 3 3 4 4 5 5 6 7 7 7 6 6 5 5 5 5 4
-4 -3 -3 -3 -2 -2 -1 -1 -0 1 1 2 3 4 4 5 5 5 5 6 6 5 5 5 5 5 5
-3 -3 -3 -3 -2 -3 -3 -3 -2 -1 1 1 2 2 3 4 4 4 4 4 4 4 4 4 5 6 5
-6 -5 -4 -4 -4 -4 -3 -4 -3 -2 -1 0 1 2 3 3 3 3 3 4 4 3 3 2 4 5 5
-6 -7 -7 -7 -6 -6 -5 -5 -5 -4 -2 -1 0 1 2 2 2 3 3 2 3 3 2 2 2 3 4
-7 -8 -8 -8 -7 -7 -7 -6 -5 -4 -3 -2 -1 -0 0 1 1 2 2 2 2 2 2 1 3 3 4
-7 -7 -8 -8 -8 -7 -7 -7 -6 -5 -4 -3 -2 -1 -0 0 1 1 1 1 1 1 1 1 1 1 3
-7 -8 -8 -8 -8 -8 -8 -7 -6 -5 -5 -3 -2 -2 -1 -1 -0 -0 0 0 0 1 0 -0 -0 0 1
-8 -8 -8 -8 -8 -8 -8 -7 -6 -5 -4 -4 -3 -3 -2 -2 -1 -2 -1 -0 -1 -1 -0 -0 0 -0 -0
-8 -8 -9 -9 -9 -9 -8 -7 -6 -6 -5 -5 -4 -4 -3 -3 -2 -2 -3 -2 -1 -1 -1 -1 0 -0 -0

GFSFLT2_850_temp_111.txt.gz
Temp
6 7 8 8 8 9 9 9 9 9 9 9 9 9 9 10 10 10 11 12 11 10 10 9 9 9 9
4 6 6 6 7 8 8 8 8 9 9 9 8 8 9 9 9 10 10 10 10 10 10 10 10 9 8
2 3 5 6 7 6 6 7 8 8 8 8 8 8 9 9 9 9 10 9 9 9 9 9 10 8 8
2 2 2 3 4 5 5 5 6 6 7 7 8 8 9 9 9 9 10 10 9 9 9 10 8 8 8
-0 0 1 1 1 2 3 4 5 5 6 6 7 8 8 8 9 9 10 10 9 9 9 8 8 8 8
-3 -2 -1 -1 -0 0 0 1 2 3 4 5 6 7 7 8 9 10 9 9 8 9 8 8 7 7 7
-4 -4 -3 -3 -2 -1 -1 -1 -0 1 1 2 3 4 5 7 8 8 8 8 8 8 8 7 7 7 7
-4 -4 -4 -4 -4 -3 -3 -2 -1 0 1 0 2 2 3 5 5 6 6 7 7 7 7 7 6 6 6
-5 -5 -4 -4 -4 -4 -3 -3 -4 -2 -0 -1 0 1 2 2 4 5 5 5 6 7 6 6 6 6 6
-5 -5 -6 -5 -5 -5 -5 -5 -5 -4 -2 -1 -1 0 1 2 3 3 4 4 5 5 6 5 5 5 5
-6 -6 -6 -6 -6 -6 -7 -6 -6 -5 -4 -4 -3 -2 -1 1 2 2 3 4 4 4 4 5 4 4 5
-7 -6 -6 -7 -6 -6 -7 -7 -7 -7 -6 -5 -5 -3 -2 -1 0 1 2 3 3 3 4 4 4 4 4
-7 -7 -7 -7 -7 -7 -7 -8 -7 -7 -6 -5 -5 -4 -3 -2 -1 0 1 1 2 3 3 3 3 3 3
-7 -7 -7 -8 -8 -8 -8 -8 -8 -6 -7 -6 -5 -5 -4 -3 -2 -1 0 1 1 1 2 2 2 3 3
-8 -8 -8 -8 -9 -9 -9 -9 -8 -7 -6 -6 -6 -5 -4 -3 -2 -2 -1 -0 1 1 1 1 1 2 2
-9 -8 -8 -9 -9 -9 -9 -9 -8 -7 -6 -6 -6 -5 -4 -3 -3 -3 -2 -1 -0 -0 1 0 0 1 1
-9 -9 -8 -8 -9 -9 -9 -9 -9 -8 -7 -6 -6 -5 -5 -5 -3 -2 -3 -2 -1 -1 -1 -0 0 0 1

GFSFLT2_850_temp_114.txt.gz
Temp
3 3 4 6 6 8 8 8 8 8 9 9 9 9 9 9 9 9 9 10 9 10 11 10 10 9 10
2 2 2 3 4 5 5 7 8 8 8 9 9 8 9 9 9 9 9 9 9 9 9 10 9 10 10
-1 0 1 2 3 3 4 4 5 6 7 7 8 8 8 8 8 9 9 9 9 9 9 10 9 9 10
-1 -1 -0 1 1 0 3 3 4 4 5 5 6 7 7 8 8 8 8 9 9 9 9 9 9 9 9
-3 -2 -2 -1 -2 -1 -0 1 3 2 3 4 4 5 5 6 6 7 8 8 8 8 9 9 9 9 9
-4 -4 -4 -4 -3 -3 -2 -1 -1 2 2 3 3 4 4 6 6 7 8 8 8 9 9 9 9 9 9
-5 -5 -5 -5 -5 -5 -4 -3 -3 -1 -1 1 2 3 3 4 5 6 7 8 8 9 8 8 9 9 8
-5 -5 -5 -5 -6 -5 -5 -4 -3 -2 -2 -3 0 1 3 3 4 5 6 7 8 8 8 8 8 8 8
-6 -6 -5 -6 -6 -6 -5 -5 -5 -3 -1 -4 -0 -1 0 3 3 4 4 5 5 6 7 7 8 8 7
-6 -6 -6 -6 -6 -6 -6 -7 -6 -6 -3 -3 -3 -3 -1 -0 1 3 3 4 5 5 6 7 7 7 6
-7 -6 -6 -7 -7 -6 -6 -7 -7 -7 -6 -6 -6 -4 -4 -3 -0 1 1 3 3 4 4 5 5 6 6
-7 -7 -7 -6 -6 -7 -7 -7 -7 -8 -8 -7 -7 -7 -6 -5 -4 -1 0 1 2 3 3 4 4 4 5
-8 -8 -8 -7 -7 -7 -7 -8 -8 -8 -8 -7 -7 -8 -7 -7 -6 -4 -2 -0 1 2 2 2 3 3 4
-9 -9 -8 -8 -7 -8 -8 -8 -9 -8 -7 -7 -7 -7 -7 -6 -5 -5 -4 -2 -1 -0 1 2 2 2 3
-9 -9 -9 -9 -8 -8 -9 -9 -9 -9 -8 -7 -7 -7 -6 -6 -6 -5 -4 -3 -1 -1 -0 1 1 2 2
-10 -9 -9 -9 -9 -8 -9 -9 -9 -9 -9 -8 -7 -7 -6 -6 -6 -5 -4 -3 -2 -2 -1 -1 1 1 1
-10 -10 -9 -9 -9 -9 -9 -9 -9 -9 -8 -8 -7 -6 -6 -6 -5 -5 -4 -3 -2 -2 -2 -1 -1 0 1

GFSFLT2_850_temp_120.txt.gz
Temp
-1 -0 -0 -0 1 1 1 2 3 3 3 3 4 6 8 8 9 10 10 10 10 10 10 10 10 10 10
-2 -2 -1 -2 -1 -1 -1 0 0 1 2 2 4 4 7 8 8 9 10 10 10 9 10 10 10 10 10
-4 -2 -2 -2 -2 -2 -2 -1 1 0 0 2 3 3 3 5 7 8 9 9 9 9 9 9 9 9 10
-5 -4 -4 -3 -4 -3 -2 -2 -1 -0 -0 -0 0 2 3 2 3 5 7 8 9 9 9 9 9 9 9
-6 -7 -6 -5 -6 -5 -5 -4 -2 -2 -1 0 1 1 1 2 2 3 4 5 8 8 8 8 8 9 9
-7 -7 -7 -6 -6 -7 -6 -6 -6 -4 -5 -2 -1 0 0 1 1 2 3 3 4 5 7 8 8 8 8
-7 -7 -7 -7 -7 -7 -6 -7 -7 -6 -6 -5 -3 -2 -1 1 0 0 1 2 3 4 5 6 7 7 8
-7 -7 -7 -7 -7 -7 -7 -7 -7 -6 -6 -6 -4 -5 -2 -1 -2 -1 -2 1 2 3 4 5 6 7 7
-7 -8 -8 -8 -7 -7 -7 -8 -8 -7 -6 -7 -6 -6 -4 -1 -2 -1 -1 -1 -0 2 2 4 5 6 7
-8 -7 -7 -8 -8 -8 -8 -8 -8 -8 -7 -8 -8 -8 -8 -4 -2 -3 -2 -1 -1 0 2 4 4 6 7
-8 -8 -8 -8 -8 -8 -8 -8 -8 -8 -7 -8 -8 -8 -9 -8 -5 -2 -2 -0 -0 0 1 3 4 5 5
-8 -8 -8 -8 -8 -8 -8 -8 -8 -8 -8 -8 -9 -9 -9 -9 -8 -4 -3 -2 -1 0 1 1 3 4 4
-9 -9 -9 -9 -9 -9 -8 -8 -8 -9 -8 -8 -9 -9 -9 -9 -9 -7 -6 -3 -3 -1 0 0 2 3 3
-9 -10 -10 -9 -9 -9 -9 -9 -9 -8 -8 -8 -8 -9 -9 -9 -9 -8 -7 -7 -4 -3 -3 -1 0 1 1
-10 -10 -10 -11 -11 -10 -9 -9 -10 -10 -9 -8 -8 -9 -9 -9 -9 -8 -8 -7 -6 -4 -3 -2 -1 -0 -0
-10 -10 -10 -11 -11 -10 -10 -10 -10 -9 -9 -9 -9 -9 -9 -8 -8 -8 -7 -6 -6 -6 -5 -5 -2 -1 -1
-10 -10 -11 -11 -11 -11 -11 -11 -10 -9 -9 -9 -9 -9 -10 -10 -8 -7 -8 -7 -7 -6 -6 -5 -4 -2 -2